www.pogodaiklimat.ru

Погода и климат >> Архив погоды >> Финляндия >> Кеми аэропорт


ПОГОДА в Кеми аэропорту

  • Прогноз погоды в Кеми аэропорту
  • Монитор погоды в Кеми аэропорту

АРХИВ ПОГОДЫ в Кеми аэропорту

Время (UTC), дата Ветер
(напр.,м/с)
 
Видим.   Явления Облачность Т
(С)
Тd
(С)
f
(%)
Тe
(С)
Тes
(С)
Комфортность P
(гПа)
Po
(гПа)
Тmin
(С)
Tmax
(С)
R
(мм)
R24
(мм)
S
(см)
22 10.06 С 6 65 км 9/1 600 м
[]
+7.2 +1.3 66 +3 +3 1017.6 1016.1
23 10.06 С 6 >70 км ясно +5.4 +0.8 72 +1 +1 1018.8 1017.3
00 11.06 С 6 50 км ясно +4.4 +0.7 77 -1 -1 1019.7 1018.2
01 11.06 С 6 >70 км ясно +3.7 +0.4 79 -2 -2 1020.6 1019.0
02 11.06 С 5 >70 км ясно +3.7 +0.4 79 -1 -1 1021.5 1019.9
03 11.06 С 7 50 км ясно +4.4 +0.5 76 -1 -1 1022.5 1021.0
04 11.06 С 6 >70 км 9/0 600 м
[]
+5.0 0.0 70 0 +1 1023.1 1021.6
05 11.06 С 7 >70 км 5/0 600 м
[]
+4.6 -0.9 67 +1 1023.8 1022.3
06 11.06 С 7 50 км 8/8 600 м
[]
+5.6 -1.1 62 +1 +1 1024.6 1023.1 +3.7 +10.4
07 11.06 С 5 >70 км 6/0 600 м
[]
+6.4 -1.5 57 +3 +6 1025.8 1024.3
08 11.06 СЗ 6 >70 км 10/0 1000 м
[]
+6.8 -1.0 58 +3 +5 1026.6 1025.1
09 11.06 С 6 50 км 9/9 1000 м
[]
+7.5 -1.3 54 +4 +4 1027.0 1025.4
10 11.06 С 8 60 км 10/0 1000 м
[]
+7.9 -1.1 53 +4 +5 1027.1 1025.6
11 11.06 С 8 60 км 10/0 1000 м
[]
+7.5 -1.4 53 +3 +4 1027.5 1026.0
12 11.06 С 7 50 км 10/10 1000 м
[]
+7.6 -1.5 52 +4 +4 1028.1 1026.6
13 11.06 С 6 60 км 10/0 1500 м
[]
+8.1 -1.5 51 +5 +6 1028.3 1026.8
14 11.06 С 6 65 км 10/0 1000 м
[]
+8.0 -1.7 50 +4 +6 1028.4 1026.9
15 11.06 С 6 50 км 10/10 1000 м
[]
+7.7 -1.0 54 +4 +4 1029.1 1027.6
16 11.06 С 5 50 км 10/0 1500 м
[]
+8.5 -0.9 52 +5 +6 1029.4 1027.9
17 11.06 СВ 4 >70 км 10/0 1500 м
[]
+9.0 -2.5 44 +7 +7 1029.7 1028.2
18 11.06 С 4 50 км 9/9 1500 м
[]
+8.2 -3.3 44 +6 +6 1029.9 1028.3 +5.6 +9.0
19 11.06 С 2 60 км 4/0 1500 м
[]
+7.7 -1.1 54 +6 +6 1029.9 1028.4
20 11.06 штиль 0 >70 км ясно +3.9 +0.6 79 +3 +3 1030.1 1028.6
21 11.06 В 1 50 км ясно +1.8 +0.5 91 0 0 1030.4 1028.8
22 11.06 штиль 0 65 км ясно +0.5 -0.3 94 -1 -1 1030.8 1029.2
23 11.06 штиль 0 55 км ясно -0.5 -1.0 96 -2 -2 1031.1 1029.6
00 12.06 штиль 0 50 км 1/0
[]
-1.6 -2.2 96 -3 -3 1031.5 1030.0
01 12.06 штиль 0 60 км ясно -1.4 -2.3 94 -3 -3 1031.5 1030.0
02 12.06 СВ 1 65 км ясно +0.5 -0.7 92 -2 -1 1031.5 1030.0
03 12.06 С 1 50 км ясно +4.4 +1.1 79 +3 +5 1031.7 1030.2
04 12.06 С 1 65 км ясно +7.1 +1.5 68 +6 +9 1031.7 1030.1
05 12.06 В 1 65 км 9/0 1500 м
[]
+9.4 -1.1 48 +9 +12 1031.6 1030.1
06 12.06 З 3 50 км 10/0 2000 м
[]
+9.6 -0.7 49 +8 +10 1031.9 1030.4 -1.7 +10.0
07 12.06 З 3 65 км 9/0 2000 м
[]
+10.2 +0.4 51 +9 +12 1031.9 1030.4
08 12.06 ЮЗ 5 60 км 6/0 1500 м
[]
+10.7 +1.6 53 +8 +12 1032.0 1030.4
09 12.06 ЮЗ 6 50 км 9/9 1500 м
[]
+11.5 +2.1 52 +9 +9 1031.8 1030.3
10 12.06 ЮЗ 5 50 км 3/0 1500 м
[]
+11.3 +1.0 49 +9 +14 1031.7 1030.2
11 12.06 ЮЗ 5 60 км 9/0 1500 м
[]
+11.2 +1.2 50 +9 +12 1031.2 1029.7
12 12.06 ЮЗ 5 50 км 1/1 1500 м
[]
+12.4 +0.8 45 +10 +16 1031.2 1029.7
13 12.06 З 5 60 км 1/0 1500 м
[]
+11.9 -0.2 43 +10 +15 1030.7 1029.2
14 12.06 ЮЗ 5 50 км ясно +11.9 -0.4 43 +10 +14 1030.2 1028.7
15 12.06 ЮЗ 4 50 км ясно +12.0 -0.3 43 +10 +14 1029.7 1028.2
16 12.06 ЮЗ 3 65 км ясно +11.7 +0.2 45 +10 +13 1029.3 1027.8
17 12.06 ЮЗ 3 65 км ясно +11.7 +0.6 46 +10 +12 1029.2 1027.6
18 12.06 ЮЗ 2 50 км ясно +11.7 +2.1 52 +11 +12 1029.1 1027.6 +9.6 +13.1
19 12.06 Ю 1 60 км ясно +9.7 +2.5 61 +10 +10 1028.8 1027.2
20 12.06 В 1 65 км 3/0
[]
+6.9 +4.2 83 +6 +6 1028.8 1027.3
21 12.06 С 1 50 км 9/0
[]
+5.4 +4.3 93 +4 +4 1028.7 1027.1
22 12.06 С 1 50 км 6/0
[]
+4.9 +4.1 95 +3 +3 1028.5 1026.9
23 12.06 В 2 45 км 9/0
[]
+3.5 +3.1 97 0 0 1028.1 1026.6
00 13.06 В 3 50 км 6/0
[]
+5.4 +2.3 80 +2 +2 1028.4 1026.8
01 13.06 В 3 >70 км 1/0
[]
+7.1 +2.4 72 +4 +4 1028.3 1026.8
02 13.06 В 4 >70 км 8/0
[]
+7.9 +2.5 69 +5 +5 1028.1 1026.5
03 13.06 ЮВ 3 50 км 9/0
[]
+8.6 +2.7 66 +6 +7 1027.9 1026.4
04 13.06 ЮВ 3 >70 км 9/4
[]
+9.4 +3.5 67 +7 +8 1027.5 1026.0
05 13.06 ЮВ 3 65 км 10/0
[]
+11.9 +4.0 58 +11 +12 1027.4 1025.8
06 13.06 В 3 50 км 9/9
[]
+13.6 +2.9 48 +13 +13 1026.8 1025.3 +3.0 +13.6
07 13.06 Ю 5 65 км 9/0
[]
+14.0 +5.1 55 +12 +15 1027.1 1025.6
08 13.06 Ю 3 65 км 9/0
[]
+13.5 +2.8 48 +13 +17 1026.7 1025.2
09 13.06 Ю 2 50 км 9/9
[]
+14.1 +3.1 47 +14 +15 1026.7 1025.2
10 13.06 ЮЗ 2 50 км 8/0
[]
+15.4 +3.0 43 +15 +23 1026.2 1024.7
11 13.06 ЮЗ 4 60 км 1/0
[]
+15.5 +1.5 39 +15 +22 1025.8 1024.3
12 13.06 ЮЗ 2 50 км 6/0
[]
+16.3 +2.2 39 +17 +24 1025.2 1023.7
13 13.06 З 2 55 км 8/0
[]
+16.6 +2.4 38 +17 +23 1024.4 1022.9
14 13.06 СЗ 2 55 км 1/0
[]
+17.4 +3.0 38 +18 +25 1023.7 1022.2
15 13.06 ЮЗ 2 50 км 10/10
[]
+17.4 +2.9 38 +18 +18 1023.1 1021.6
16 13.06 З 2 65 км 10/0
[]
+17.0 +3.7 41 +17 +19 1022.7 1021.2
17 13.06 З 2 65 км 9/0
[]
+17.1 +4.0 42 +17 +19 1022.5 1021.0
18 13.06 С 2 50 км 10/10
[]
+16.3 +4.9 47 +17 +17 1022.1 1020.6 +12.8 +17.6
19 13.06 С 2 65 км 10/0
[]
+15.4 +6.7 56 +15 +16 1022.0 1020.5
20 13.06 С 3 60 км 9/9
[]
+13.4 +5.9 60 +12 +12 1021.7 1020.1
21 13.06 С 2 50 км ясно +9.4 +6.5 82 +8 +8 1021.9 1020.4
22 13.06 СВ 1 60 км 9/0
[]
+8.7 +6.5 86 +8 +8 1021.9 1020.4
23 13.06 С 2 55 км ясно +6.8 +5.8 93 +4 +4 1021.8 1020.3
00 14.06 СВ 2 50 км ясно +6.5 +5.2 91 +4 +4 1021.6 1020.1
01 14.06 С 3 65 км ясно +6.9 +5.1 88 +3 +3 1021.2 1019.7
02 14.06 С 3 55 км ясно +8.3 +6.1 86 +6 +6 1021.0 1019.5
03 14.06 С 2 50 км ясно +9.8 +6.2 78 +8 +10 1020.7 1019.2
04 14.06 С 2 65 км ясно +11.7 +6.3 69 +11 +13 1020.5 1019.0
05 14.06 С 2 60 км ясно +13.4 +7.5 67 +13 +17 1020.1 1018.6
06 14.06 СВ 3 50 км ясно +16.5 +5.7 49 +16 +21 1019.8 1018.2 +5.8 +16.5
07 14.06 С 2 55 км ясно +17.9 +5.2 43 +18 +27 1019.6 1018.1
08 14.06 С 3 55 км ясно +18.5 +4.0 38 +19 +27 1019.5 1018.0
09 14.06 ЮЗ 3 50 км ясно +18.6 +4.1 38 +19 +28 1019.1 1017.5
10 14.06 З 4 55 км ясно +19.5 +5.5 40 +20 +28 1018.6 1017.1
11 14.06 З 3 60 км ясно +20.0 +4.8 37 +21 +31 комфорт 1018.0 1016.5
12 14.06 ЮЗ 4 50 км ясно +19.3 +6.2 42 +20 +27 1017.6 1016.1
13 14.06 З 5 55 км ясно +19.1 +6.2 43 +19 +24 1017.1 1015.6
14 14.06 ЮЗ 5 55 км ясно +18.9 +3.8 37 +19 +23 1016.4 1014.9
15 14.06 З 5 50 км ясно +18.7 +4.5 39 +19 +22 1015.9 1014.4
16 14.06 З 4 50 км ясно +19.0 +3.9 37 +19 +22 1015.5 1014.0
17 14.06 З 3 50 км ясно +19.3 +4.8 38 +20 +22 1014.9 1013.4
18 14.06 З 2 50 км ясно +19.2 +5.3 40 +20 +21 1014.3 1012.8 +16.5 +20.2
19 14.06 З 2 55 км ясно +16.6 +6.7 52 +17 +17 1014.0 1012.5
20 14.06 В 1 50 км ясно +13.3 +8.0 70 +14 +14 1013.9 1012.4
21 14.06 штиль 0 40 км ясно +10.2 +8.1 87 +9 +9 1014.0 1012.4
22 14.06 штиль 0 35 км ясно +8.4 +7.9 97 +7 +7 1013.8 1012.3
23 14.06 штиль 0 30 км ясно +7.4 +7.0 97 +6 +6 1013.6 1012.1
00 15.06 штиль 0 35 км ясно +6.8 +6.4 97 +6 +6 1013.7 1012.2
01 15.06 В 1 45 км ясно +7.2 +6.2 93 +6 +6 1013.7 1012.2
02 15.06 С 3 45 км ясно +11.0 +7.7 80 +9 +10 1013.7 1012.2
03 15.06 С 5 50 км ясно +12.7 +6.2 65 +11 +11 1013.9 1012.4
04 15.06 СВ 4 45 км ясно +13.9 +5.2 56 +13 +14 1014.1 1012.6
05 15.06 СВ 5 50 км ясно +15.6 +6.2 54 +15 +17 1014.5 1013.0
06 15.06 С 5 50 км ясно +16.1 +5.7 50 +15 +18 1014.8 1013.3 +6.6 +19.2
07 15.06 С 5 50 км ясно +17.4 +6.3 48 +17 +21 1015.0 1013.5
08 15.06 С 6 45 км ясно +18.4 +5.6 43 +18 +22 1015.3 1013.8
09 15.06 С 6 50 км ясно +19.0 +5.1 40 +19 +23 1015.3 1013.8
10 15.06 С 5 60 км ясно +19.6 +3.6 35 +20 +26 1015.4 1013.9
11 15.06 С 4 50 км ясно +20.1 +3.5 33 +21 +29 комфорт 1015.3 1013.8
12 15.06 С 3 50 км ясно +20.9 +4.1 33 +22 +31 комфорт 1015.1 1013.6
13 15.06 С 3 55 км ясно +21.3 +4.0 32 +22 +29 комфорт 1014.8 1013.3
14 15.06 С 3 55 км ясно +21.2 +4.0 32 +21 +28 комфорт 1014.6 1013.1
15 15.06 З 5 45 км ясно +20.2 +7.0 42 +21 +24 комфорт 1014.4 1012.9
16 15.06 З 5 60 км ясно +19.8 +6.2 41 +20 +22 1014.3 1012.8
17 15.06 З 5 50 км ясно +18.3 +6.8 47 +18 +19 1014.2 1012.7
18 15.06 З 4 50 км ясно +17.5 +7.1 50 +17 +18 1013.8 1012.3 +16.1 +21.8
19 15.06 З 4 60 км ясно +16.0 +7.8 58 +15 +15 1013.7 1012.2
20 15.06 ЮЗ 4 65 км ясно +14.4 +8.2 66 +13 +13 1013.6 1012.1
21 15.06 ЮЗ 3 50 км ясно +13.4 +8.7 73 +12 +12 1013.6 1012.1
22 15.06 ЮЗ 3 60 км ясно +12.4 +8.8 79 +11 +11 1013.4 1011.9
23 15.06 ЮЗ 2 50 км ясно +11.4 +8.8 84 +10 +10 1013.0 1011.5
00 16.06 Ю 3 45 км ясно +10.3 +8.3 87 +8 +8 1012.6 1011.1
01 16.06 ЮЗ 2 45 км ясно +10.3 +8.2 87 +9 +9 1012.3 1010.8
02 16.06 Ю 2 45 км ясно +10.8 +9.1 89 +9 +10 1011.7 1010.2
03 16.06 Ю 3 50 км ясно +14.9 +11.2 79 +14 +15 1011.3 1009.8
04 16.06 ЮЗ 1 55 км ясно +17.3 +10.8 66 +18 +21 1011.1 1009.6
05 16.06 С 3 50 км ясно +17.1 +9.8 62 +17 +20 1011.4 1009.9
06 16.06 С 3 50 км ясно +18.1 +9.3 56 +18 +23 1011.5 1010.0 +9.8 +18.1
07 16.06 СВ 3 60 км ясно +19.5 +7.9 47 +21 +27 комфорт 1011.4 1009.9
08 16.06 С 4 55 км ясно +20.6 +5.2 36 +21 +28 комфорт 1011.4 1009.9
09 16.06 С 3 45 км ясно +21.6 +3.6 31 +22 +31 комфорт 1011.4 1009.9
10 16.06 ЮЗ 4 45 км ясно +21.0 +11.4 54 +23 +31 комфорт 1010.9 1009.4
11 16.06 ЮЗ 5 40 км ясно +20.4 +11.4 56 +22 +28 комфорт 1010.8 1009.3
12 16.06 ЮЗ 5 45 км ясно +21.2 +11.6 54 +23 +29 комфорт 1010.7 1009.2
13 16.06 ЮЗ 5 50 км ясно +21.3 +9.7 47 +23 +28 комфорт 1010.6 1009.1
14 16.06 ЮЗ 5 45 км ясно +20.5 +10.1 51 +22 +26 комфорт 1010.4 1008.9
15 16.06 ЮЗ 5 50 км ясно +19.4 +10.4 56 +20 +23 1010.2 1008.7
16 16.06 ЮЗ 5 60 км ясно +19.2 +10.8 58 +20 +22 1010.1 1008.6
17 16.06 ЮЗ 3 55 км ясно +18.7 +8.3 51 +19 +21 1010.0 1008.5
18 16.06 Ю 2 50 км ясно +18.5 +10.4 59 +19 +20 1010.0 1008.5 +17.8 +22.3
19 16.06 Ю 2 60 км ясно +16.1 +10.1 68 +16 +16 1009.7 1008.2
20 16.06 Ю 2 55 км ясно +14.1 +10.8 81 +14 +14 1009.7 1008.2
21 16.06 Ю 2 50 км ясно +12.6 +11.4 92 +12 +12 1009.6 1008.1
22 16.06 ЮВ 2 40 км ясно +10.9 +10.5 97 +9 +9 1009.5 1008.0
23 16.06 В 3 45 км ясно +11.1 +10.6 97 +9 +9 1009.2 1007.7
00 17.06 ЮВ 2 35 км 3/3
[]
+11.1 +10.6 97 +10 +10 1009.0 1007.5
01 17.06 Ю 2 35 км 10/10
[]
+11.2 +10.8 97 +10 +10 1008.9 1007.4
02 17.06 В 2 40 км в посл. час дождь 10/0
[]
+11.9 +10.9 94 +11 +11 1008.2 1006.7
03 17.06 В 2 40 км 9/9
[]
+12.4 +11.2 92 +11 +11 1008.1 1006.6
04 17.06 ЮВ 3 50 км 10/0
[]
+12.8 +10.9 88 +11 +12 1007.9 1006.4
05 17.06 ЮВ 3 55 км 3/0
[]
+14.5 +10.6 77 +14 +17 1007.7 1006.2
06 17.06 ЮВ 4 50 км ясно +15.5 +10.9 74 +15 +19 1007.2 1005.7 +10.4 +18.5
07 17.06 Ю 4 50 км ясно +16.1 +11.0 72 +15 +21 1007.4 1005.9
08 17.06 ЮВ 4 45 км ясно +16.1 +10.8 71 +15 +22 1007.3 1005.8
09 17.06 Ю 4 40 км ясно +16.9 +11.8 72 +16 +24 1007.0 1005.5
10 17.06 Ю 3 45 км 8/0
[]
+15.7 +11.1 74 +15 +21 1007.1 1005.6
11 17.06 ЮЗ 4 50 км 10/0
[]
+14.2 +11.0 81 +13 +17 1007.6 1006.1
12 17.06 Ю 2 35 км слаб. ливневой дождь 10/1 1000 м
[]
+14.0 +12.0 88 +13 +18 1007.4 1005.9
13 17.06 ЮВ 1 27 км слаб. ливневой дождь 10/1 1000 м
[]
+14.9 +12.3 84 +15 +20 1007.0 1005.5
14 17.06 ЮВ 2 35 км в посл. час дождь 9/1 1000 м
[]
+16.0 +13.0 82 +16 +20 1006.6 1005.1
15 17.06 ЮЗ 2 35 км слаб. ливневой дождь 9/1 1000 м
[]
+16.4 +14.0 86 +16 +19 1006.4 1004.9
17 17.06 ЮВ 2 50 км 9/9
[]
+16.2 +12.6 79 +16 +16 1005.8 1004.3
18 17.06 Ю 1 50 км 10/10
[]
+15.8 +12.8 82 +16 +16 1005.6 1004.1 +13.3 +17.3
19 17.06 Ю 2 40 км 9/1 1500 м
[]
+15.3 +12.9 86 +15 +15 1005.5 1004.0
20 17.06 ЮЗ 2 30 км 9/9 2000 м
[]
+14.4 +12.7 90 +14 +14 1005.7 1004.2
21 17.06 ЮЗ 2 45 км 10/10 2000 м
[]
+13.9 +11.8 87 +13 +13 1005.8 1004.3
22 17.06 В 1 40 км 10/0
[]
+13.3 +11.9 91 +13 +13 1005.5 1004.0

 

Местоположение метеостанции Кеми аэропорт (Финляндия): широта 65.78 долгота 24.58 высота над уровнем моря 19 м.

В архиве по умолчанию представлена погода в Кеми аэропорту за последнюю неделю. Архивные данные за месяц целиком и за предыдущие месяцы, начиная с января 2011 года, Вы можете получить, выбрав интересующий диапазон дат из раскрывающегося списка и нажав кнопку "Ввод!".


*Определитесь, кто Вы:
робот инопланетянин человек

Внимание! Время в таблицах - всемирное. Для получения местного времени необходимо прибавить поправку, которая равна 1 ч.

Смотрите также архив погоды в соседних городах и на ближайших метеорологических станциях:

Погода в Кеми Айос (Финляндия) (13 км)
Погода в Торнио (Финляндия) (20 км)
Погода в Хапаранда аэропорту (Швеция) (21 км)
Погода в Кеми (Финляндия) (49 км)
Погода в Стороне (Швеция) (68 км)
Погода в Дйнжандихеиди (Исландия) (69 км)
Погода на Маяке Marjaniemi (Финляндия) (82 км)
Погода в Мелтосярви (Финляндия) (83 км)
Погода в Аэропорту Рануа (Финляндия) (84 км)
Погода в Хайлуото (Финляндия) (85 км)

Пояснения к столбцам:

Ветер - указаны скорость ветра в м/с - средняя за 10 мин, порывы в срок и между сроками (в фигурных скобках) и направление, откуда дует ветер: С - северный, СВ - северо-восточный, В - восточный, ЮВ - юго-восточный, Ю - южный, ЮЗ - юго-западный, З - западный, СЗ - северо-западный.
Видимость - горизонтальная дальность видимости в метрах или километрах. При видимости от 1 до 10 км при отсутствии осадков обычно наблюдается дымка, при ухудшении видимости до 1 км и менее - туман. В сухую погоду видимость может ухудшаться дымом, пылью или мглою.
Явления - указаны атмосферные явления, наблюдавшиеся в срок или в последний час перед сроком; фигурными скобками обозначены явления, наблюдавшиеся между сроками (за 1-3 часа до срока); квадратными скобками обозначены град или гололедные отложения с указанием их диаметра в мм.
Облачность - указаны через наклонную черту общая и нижняя облачность в баллах и высота нижней границы облаков в метрах; квадратными скобками обозначены формы облаков: Ci - перистые, Cs - перисто-слоистые, Cc - перисто-кучевые, Ac - высококучевые, As - высокослоистые, Sc - слоисто-кучевые, Ns - слоисто-дождевые, Cu - кучевые, Cb - кучево-дождевые. Подробнее классификацию облаков см. в Атласе облаков (PDF).
T - Температура воздуха - температура, измеренная на высоте 2 м над землей.
Td - Температура точки росы - температура, при понижении до которой содержащийся в воздухе водяной пар достигнет насыщения.
f - Относительная влажность воздуха - влажноcть воздуха, измеренная на высоте 2 м над землей.
Te - Эффективная температура - температура, которую ощущает одетый по сезону человек в тени. Характеристика душности погоды. При расчете учитывается влияние влажности воздуха и скорости ветра на теплоощущения человека.
Tes - Эффективная температура на солнце - температура, которую ощущает человек, с поправкой на солнечный нагрев. Характеристика знойности погоды. Зависит от высоты солнца над горизонтом, облачности и скорости ветра. Ночью, в пасмурную погоду, а также при ветре 12 м/с и более поправка равна нулю.
P - Атмосферное давление - приведенное к уровню моря атмосферное давление.
Po - Атмосферное давление - измеренное на уровне метеостанции атмосферное давление.
Tmin - Минимальная температура - минимум температуры воздуха на высоте 2 м над землей.
Tmax - Максимальная температура - максимум температуры воздуха на высоте 2 м над землей.
R - Количество осадков - Количество выпавших осадков за период времени, мм. При наведении курсора мыши на число - период времени, за который выпало указанное количество осадков.
R24 - Количество осадков - Количество выпавших осадков за 24 часа, мм.
S - Снежный покров - Высота снежного покрова, см. При наведении курсора мыши на число - состояние снежного покрова и степень покрытия местности в баллах.